Voltar ao catálogo

SCOUT G-1 DEB

AtivoPO
NORAD 18426·DEBRIS·🇺🇸 United States

Lançado Nov 14, 1986 de Vandenberg Space Force Base

Loading…

Próximas Passagens (próximas 24 horas)

TLE

AtualizadoSource: Space-Track

Época: Sep 13, 2026, 22:39 UTC

1 18426U 86088C   26256.94396178  .00000128  00000-0  12194-3 0  9990
2 18426  89.1209 244.5840 0066432 246.5794 142.0170 13.73914548993132

Acompanhe SCOUT G-1 DEB em tempo real com AllMySat

Download on the App Store